Regional Weather Roundup
Issued by NWS

Home | Current Version | Previous Version | Text Only | Print | Product List | Glossary Off
Versions: 1 2 3 4 5 6 7 8 9 10 11 12 13 14 15 16 17 18 19 20 21 22 23 24 25 26 27 28 29 30 31 32 33 34 35 36 37 38 39 40 41 42 43 44 45 46 47 48 49 50

000
ASUS45 KCYS 261410
RWRWY

WYOMING REGIONAL WEATHER ROUNDUP
NATIONAL WEATHER SERVICE CHEYENNE WY
700 AM MST WED NOV 26 2014

NOTE:  "FAIR" INDICATES FEW OR NO CLOUDS BELOW 12,000 FEET
WITH NO SIGNIFICANT WEATHER AND/OR OBSTRUCTIONS TO VISIBILITY.

WYZ001-261500-
YELLOWSTONE NATIONAL PARK

CITY           SKY/WX    TMP DP  RH WIND       PRES   REMARKS
LK YELLOWSTONE   N/A     32  28  85 MISG      30.13R
W YELLOWSTONE  NOT AVBL

$$
WYZ002>013-054>058-071-098>099-261500-
NORTHERN WYOMING

CITY           SKY/WX    TMP DP  RH WIND       PRES   REMARKS
JACKSON        CLOUDY    41  30  65 SW15G22   30.17R
CODY           CLOUDY    23  21  93 CALM      30.12R
GREYBULL       LGT SNOW  26  25  96 CALM      30.17R FOG
WORLAND        PTCLDY    21  20  96 E3        30.14F
SHERIDAN       LGT SNOW  27  24  89 CALM      30.17R FOG
BUFFALO        LGT SNOW  24  22  91 CALM      30.15R FOG
GILLETTE       CLOUDY    25  22  88 W7        30.15S FOG     WCI  17
HULETT           N/A    N/A N/A N/A MISG        N/A
NEWCASTLE      PTSUNNY   27  21  80 N7        30.17R WCI  19

$$
WYZ014>020-022>026-101>103-261500-
CENTRAL WYOMING

CITY           SKY/WX    TMP DP  RH WIND       PRES   REMARKS
BIG PINEY      PTCLDY   N/A N/A N/A NW6       30.20R
PINEDALE       PTSUNNY   34  32  93 NW15      30.19R WCI  24
DUBOIS         CLOUDY    37  28  70 W38G53    30.02S WCI  24
LANDER         CLOUDY    25  23  92 CALM      30.10S
RIVERTON       CLOUDY    23  20  88 E8        30.10F WCI  14
CASPER         MOCLDY    20  17  88 SW3       30.12S
DOUGLAS        CLOUDY   N/A N/A N/A N3        30.17R

$$
WYZ021-027>030-104>119-261500-
SOUTHERN WYOMING

CITY           SKY/WX    TMP DP  RH WIND       PRES   REMARKS
EVANSTON       PTCLDY    34  28  79 W18       30.33R WCI  23
FORT BRIDGER   CLOUDY    37  32  84 W14G20    30.33R WCI  28
ROCK SPRINGS   CLOUDY    36  29  75 W32G38    30.21R WCI  23
DIXON          CLOUDY    38  29  70 SW18G25   30.25R WCI  28
RAWLINS        CLOUDY    37  30  75 W32G44    30.10R WCI  24
SARATOGA       PTSUNNY   37  30  75 W35G49    30.11S WCI  24
LARAMIE        CLOUDY    21  18  88 S5        30.07R WCI  15
CHEYENNE       FLURRIES  22  19  89 N3        30.14S
TORRINGTON     FLURRIES  27  23  85 CALM      30.19R
PINE BLUFFS    MIX PCPN  27  23  86 NW9       30.18S WCI  17

$$


USA.gov is the U.S. government's official web portal to all federal, state and local government web resources and services.